Cloud_Cover
39 85 100 3 74 23 84 100 42 48 5 76 10 9 59 84 74 56 28 29 6 5 5 0 0 0 0 0 0 100 88 8 90 85 66 5 5 2 2 0 3 0 0 0
100 100 31 1 27 95 45 100 28 73 81 28 4 4 76 66 84 67 59 8 5 0 0 0 0 0 0 2 5 5 96 100 87 96 86 43 41 99 96 8 5 0 0 0
94 19 12 50 88 100 100 96 41 100 100 5 5 4 83 68 5 25 5 5 0 0 0 0 0 0 0 4 5 52 77 46 96 88 79 100 100 100 76 6 5 4 0 0
98 100 98 90 93 82 93 98 80 100 46 38 72 3 4 63 5 5 5 5 0 0 1 0 0 0 0 4 5 64 65 64 46 70 68 70 19 5 5 5 4 5 5 5
95 100 100 100 99 100 97 100 100 100 83 100 76 51 5 63 5 5 5 5 4 5 5 0 3 5 5 5 5 92 100 99 66 5 7 36 5 2 5 5 5 29 37 61
100 100 100 33 100 100 84 100 100 100 100 80 5 35 0 10 10 5 96 6 5 5 2 2 10 86 14 5 55 61 68 5 5 5 4 0 0 0 0 0 0 0 0 0
100 100 100 100 100 100 100 100 100 100 84 5 5 43 5 17 36 5 11 5 5 2 1 3 5 5 5 72 47 5 5 0 0 0 0 0 0 0 0 0 4 5 5 4
100 100 100 100 100 100 100 39 72 40 44 5 5 1 0 50 6 5 5 8 5 3 0 3 5 2 5 7 2 5 1 0 0 2 4 2 5 2 5 2 5 5 5 7
100 92 100 100 100 100 100 92 100 51 5 74 4 1 0 5 5 5 5 5 5 5 0 0 4 0 4 1 0 0 0 1 2 0 0 4 0 5 5 5 5 8 94 35
100 100 100 100 100 100 40 91 100 5 38 54 16 29 6 0 2 5 5 3 0 2 0 0 0 3 0 0 0 0 0 0 0 0 0 0 0 5 5 5 18 98 73 47
100 100 100 100 100 100 99 84 96 45 7 95 65 36 2 0 0 5 0 0 0 0 0 0 0 0 0 0 0 0 0 0 0 0 0 0 5 5 5 53 92 80 99 100
100 100 100 100 100 100 65 100 96 46 27 3 7 19 0 0 0 0 0 0 0 0 0 0 0 0 0 0 0 0 0 0 0 0 0 5 5 6 95 60 84 100 68 67
100 100 100 100 100 100 100 37 5 10 53 5 5 68 0 0 0 0 0 0 0 0 0 0 0 0 0 0 0 0 0 0 0 0 5 5 5 58 5 29 60 47 53 65
100 100 100 100 100 95 100 68 56 36 71 10 45 80 5 0 3 1 0 0 0 0 0 0 0 0 0 0 0 0 1 0 0 2 5 5 5 80 29 24 55 26 9 5
86 100 100 100 100 100 100 99 98 72 74 5 5 7 6 51 9 0 5 4 0 0 0 0 0 0 0 0 0 1 1 4 5 8 61 46 5 52 54 42 5 5 5 5
83 99 100 100 100 100 68 56 5 33 6 6 38 5 56 5 5 5 3 5 0 0 0 0 1 5 5 3 2 5 3 5 26 80 47 5 98 100 26 5 5 5 5 5
78 67 100 97 29 5 3 5 5 76 22 24 11 93 11 1 1 2 2 5 1 0 0 5 5 5 0 0 0 5 5 64 95 62 75 100 100 92 34 5 7 5 5 1
90 99 100 90 76 83 5 0 0 1 4 0 0 5 5 2 0 1 0 5 0 0 0 5 5 3 0 2 5 66 100 85 71 96 100 100 88 10 5 5 5 2 0 0
87 100 91 90 81 54 7 3 2 0 3 5 5 5 5 0 4 0 0 4 1 0 5 5 4 4 31 73 96 100 100 99 99 100 100 71 6 5 2 1 0 0 1 1
71 100 99 62 64 88 55 5 5 4 5 5 2 3 5 5 5 9 5 5 5 5 5 12 86 74 100 100 100 100 100 93 98 58 5 5 5 4 0 0 2 5 1 0
100 100 100 100 95 68 34 27 5 5 11 5 5 5 5 5 5 66 8 34 61 75 95 97 94 100 100 100 100 98 90 13 5 5 10 5 2 0 0 5 2 0 0 0
100 100 100 100 99 100 67 94 74 99 51 5 9 75 84 13 28 87 80 74 92 100 100 100 100 100 100 98 96 77 58 41 37 53 5 5 5 3 4 0 0 0 0 0
100 99 96 91 100 100 98 87 50 69 26 96 75 40 18 70 84 98 84 99 100 100 100 100 100 100 96 69 88 93 76 88 62 5 5 5 1 0 5 0 0 0 0 0
100 100 100 100 100 100 91 64 86 100 100 100 100 100 100 100 100 100 100 100 100 100 97 95 81 51 84 100 98 70 79 90 5 5 5 3 5 5 3 0 0 0 0 0
100 100 100 100 100 100 100 100 100 100 100 100 100 100 100 100 100 100 100 100 100 100 100 77 94 100 96 100 100 100 81 6 5 5 5 5 5 0 0 0 0 0 0 1
100 100 100 100 100 100 100 100 100 100 100 100 100 100 100 100 100 100 100 85 29 5 10 24 94 100 100 100 100 74 21 5 5 5 5 5 4 3 0 0 0 0 0 2